When you browse on this site, cookies collect data to enhance your experience and personalize the content and advertising you see.
Visit our Privacy Policy to learn more. By continuing to use the site, you agree to this use of cookies and data.
  • In Hungary
  • List of Countries
  • For 7 days
  • Water Temperature
  • Satellite Maps
  • Weather Map
  • News
  • Weather Widgets
  • user-avatar
    Login

    Hourly Weather Artihanovo

    Today, 19 January, Saturday

    Time Temperature Precipitation Wind Pressure Humidity
    00:00 -14°C° 0 mm 2 mps 734 mmHg 96%
    01:00 -14°C° 0 mm 2 mps 734 mmHg 97%
    02:00 -14°C° 0 mm 2 mps 735 mmHg 97%
    03:00 -13°C° 0.1 mm 2 mps 735 mmHg 96%
    04:00 -12°C° 0.1 mm 2 mps 735 mmHg 95%
    05:00 -10°C° 0.1 mm 2 mps 735 mmHg 94%
    06:00 -10°C° 0 mm 2 mps 735 mmHg 94%
    07:00 -10°C° 0 mm 2 mps 736 mmHg 94%
    08:00 -9°C° 0 mm 2 mps 736 mmHg 94%
    09:00 -12°C° 0 mm 3 mps 736 mmHg 92%
    10:00 -12°C° 0 mm 3 mps 737 mmHg 90%
    11:00 -12°C° 0 mm 3 mps 737 mmHg 88%
    12:00 -12°C° 0 mm 3 mps 738 mmHg 88%
    13:00 -13°C° 0 mm 3 mps 738 mmHg 89%
    14:00 -13°C° 0 mm 3 mps 738 mmHg 89%
    15:00 -13°C° 0 mm 3 mps 739 mmHg 90%
    16:00 -13°C° 0 mm 3 mps 739 mmHg 91%
    17:00 -13°C° 0 mm 3 mps 739 mmHg 92%
    18:00 -13°C° 0 mm 3 mps 739 mmHg 93%
    19:00 -13°C° 0 mm 3 mps 739 mmHg 93%
    20:00 -13°C° 0 mm 3 mps 739 mmHg 93%
    21:00 -12°C° 0 mm 3 mps 740 mmHg 93%
    22:00 -10°C° 0 mm 3 mps 740 mmHg 92%
    23:00 -9°C° 0 mm 3 mps 740 mmHg 92%

    Tomorrow, 20 January, Sunday

    Time Temperature Precipitation Wind Pressure Humidity
    00:00 -9°C° 0 mm 3 mps 739 mmHg 91%
    01:00 -9°C° 0 mm 4 mps 739 mmHg 91%
    02:00 -8°C° 0 mm 4 mps 739 mmHg 91%
    03:00 -8°C° 0.2 mm 4 mps 738 mmHg 90%
    04:00 -8°C° 0.2 mm 5 mps 737 mmHg 89%
    05:00 -8°C° 0.2 mm 5 mps 736 mmHg 88%
    06:00 -8°C° 0.3 mm 5 mps 736 mmHg 89%
    07:00 -8°C° 0.3 mm 5 mps 735 mmHg 89%
    08:00 -7°C° 0.3 mm 5 mps 735 mmHg 90%
    09:00 -7°C° 0.2 mm 5 mps 735 mmHg 87%
    10:00 -7°C° 0.2 mm 5 mps 735 mmHg 84%
    11:00 -8°C° 0.2 mm 6 mps 734 mmHg 81%
    12:00 -8°C° 0.1 mm 6 mps 735 mmHg 81%
    13:00 -9°C° 0.1 mm 6 mps 735 mmHg 81%
    14:00 -9°C° 0.1 mm 6 mps 735 mmHg 81%
    15:00 -10°C° 0.1 mm 6 mps 735 mmHg 82%
    16:00 -10°C° 0.1 mm 5 mps 736 mmHg 83%
    17:00 -11°C° 0.1 mm 5 mps 736 mmHg 84%
    18:00 -12°C° 0 mm 5 mps 737 mmHg 85%
    19:00 -14°C° 0 mm 4 mps 737 mmHg 87%
    20:00 -15°C° 0 mm 4 mps 737 mmHg 88%
    21:00 -16°C° 0 mm 4 mps 738 mmHg 89%
    22:00 -17°C° 0 mm 4 mps 738 mmHg 91%
    23:00 -16°C° 0 mm 3 mps 739 mmHg 92%

    Day after tomorrow, 21 January, Monday

    Time Temperature Precipitation Wind Pressure Humidity
    00:00 -17°C° 0 mm 3 mps 739 mmHg 93%
    01:00 -17°C° 0 mm 3 mps 739 mmHg 93%
    02:00 -18°C° 0 mm 3 mps 739 mmHg 94%
    03:00 -18°C° 0 mm 3 mps 740 mmHg 94%
    04:00 -17°C° 0 mm 2 mps 740 mmHg 94%
    05:00 -17°C° 0 mm 2 mps 740 mmHg 94%
    06:00 -18°C° 0 mm 2 mps 740 mmHg 95%
    07:00 -18°C° 0 mm 2 mps 740 mmHg 95%
    08:00 -19°C° 0 mm 2 mps 740 mmHg 96%
    09:00 -18°C° 0 mm 2 mps 741 mmHg 95%
    10:00 -19°C° 0 mm 3 mps 741 mmHg 94%
    11:00 -18°C° 0 mm 3 mps 741 mmHg 93%
    12:00 -18°C° 0 mm 3 mps 742 mmHg 93%
    13:00 -18°C° 0 mm 3 mps 742 mmHg 93%
    14:00 -17°C° 0 mm 3 mps 742 mmHg 93%
    15:00 -18°C° 0 mm 3 mps 742 mmHg 93%
    16:00 -18°C° 0 mm 3 mps 743 mmHg 94%
    17:00 -19°C° 0 mm 3 mps 743 mmHg 95%
    18:00 -19°C° 0 mm 2 mps 743 mmHg 95%
    19:00 -19°C° 0 mm 2 mps 743 mmHg 96%
    20:00 -20°C° 0 mm 2 mps 743 mmHg 96%
    21:00 -20°C° 0 mm 2 mps 744 mmHg 97%
    22:00 -20°C° 0 mm 2 mps 744 mmHg 97%
    23:00 -20°C° 0 mm 2 mps 744 mmHg 97%

    22 January, Tuesday

    Time Temperature Precipitation Wind Pressure Humidity
    00:00 -21°C° 0 mm 2 mps 744 mmHg 98%
    01:00 -19°C° 0 mm 1 mps 745 mmHg 98%
    02:00 -19°C° 0 mm 1 mps 745 mmHg 98%
    03:00 -20°C° 0 mm 1 mps 745 mmHg 98%
    04:00 -20°C° 0 mm 1 mps 745 mmHg 99%
    05:00 -20°C° 0 mm 1 mps 745 mmHg 99%
    06:00 -21°C° 0 mm 1 mps 745 mmHg 99%
    07:00 -21°C° 0 mm 1 mps 745 mmHg 99%
    08:00 -21°C° 0 mm 1 mps 745 mmHg 99%
    09:00 -20°C° 0 mm 1 mps 746 mmHg 98%
    10:00 -19°C° 0 mm 0 mps 746 mmHg 97%
    11:00 -18°C° 0 mm 0 mps 746 mmHg 95%
    12:00 -17°C° 0 mm 0 mps 746 mmHg 95%
    13:00 -17°C° 0 mm 1 mps 745 mmHg 96%
    14:00 -16°C° 0 mm 1 mps 745 mmHg 96%
    15:00 -17°C° 0 mm 1 mps 745 mmHg 97%
    16:00 -18°C° 0 mm 1 mps 745 mmHg 98%
    17:00 -19°C° 0 mm 1 mps 745 mmHg 99%
    18:00 -20°C° 0 mm 1 mps 745 mmHg 99%
    19:00 -20°C° 0 mm 1 mps 745 mmHg 99%
    20:00 -20°C° 0 mm 1 mps 745 mmHg 99%
    21:00 -20°C° 0 mm 1 mps 745 mmHg 99%
    22:00 -19°C° 0 mm 1 mps 745 mmHg 99%
    23:00 -19°C° 0 mm 1 mps 745 mmHg 99%

    23 January, Wednesday

    Time Temperature Precipitation Wind Pressure Humidity
    00:00 -19°C° 0 mm 1 mps 745 mmHg 99%
    01:00 -19°C° 0 mm 1 mps 745 mmHg 99%
    02:00 -18°C° 0 mm 1 mps 745 mmHg 99%
    03:00 -18°C° 0 mm 1 mps 745 mmHg 98%
    04:00 -18°C° 0 mm 1 mps 745 mmHg 98%
    05:00 -17°C° 0 mm 1 mps 745 mmHg 98%
    06:00 -17°C° 0 mm 1 mps 745 mmHg 98%
    07:00 -19°C° 0 mm 2 mps 745 mmHg 98%
    08:00 -19°C° 0 mm 2 mps 745 mmHg 98%
    09:00 -18°C° 0 mm 2 mps 745 mmHg 97%
    10:00 -17°C° 0 mm 2 mps 745 mmHg 96%
    11:00 -16°C° 0 mm 2 mps 745 mmHg 95%
    12:00 -15°C° 0 mm 2 mps 745 mmHg 95%
    13:00 -12°C° 0 mm 1 mps 745 mmHg 95%
    14:00 -11°C° 0 mm 1 mps 745 mmHg 94%
    15:00 -11°C° 0.1 mm 1 mps 745 mmHg 95%
    16:00 -10°C° 0.1 mm 1 mps 745 mmHg 96%
    17:00 -10°C° 0.1 mm 1 mps 745 mmHg 97%
    18:00 -10°C° 0.1 mm 1 mps 745 mmHg 97%
    19:00 -9°C° 0.1 mm 1 mps 745 mmHg 97%
    20:00 -9°C° 0.1 mm 1 mps 745 mmHg 97%
    21:00 -8°C° 0.1 mm 1 mps 745 mmHg 97%
    22:00 -8°C° 0.1 mm 1 mps 746 mmHg 97%
    23:00 -8°C° 0.1 mm 2 mps 746 mmHg 96%

    24 January, Thursday

    Time Temperature Precipitation Wind Pressure Humidity
    00:00 -8°C° 0.1 mm 2 mps 746 mmHg 96%
    01:00 -8°C° 0.1 mm 2 mps 747 mmHg 96%
    02:00 -8°C° 0.1 mm 2 mps 747 mmHg 96%
    03:00 -8°C° 0.1 mm 2 mps 747 mmHg 96%
    04:00 -8°C° 0.1 mm 1 mps 747 mmHg 96%
    05:00 -8°C° 0.1 mm 1 mps 747 mmHg 97%
    06:00 -9°C° 0 mm 1 mps 748 mmHg 97%
    07:00 -9°C° 0 mm 1 mps 748 mmHg 97%
    08:00 -10°C° 0 mm 1 mps 748 mmHg 97%
    09:00 -9°C° 0 mm 1 mps 749 mmHg 96%
    10:00 -9°C° 0 mm 1 mps 749 mmHg 96%
    11:00 -9°C° 0 mm 1 mps 749 mmHg 95%
    12:00 -9°C° 0 mm 1 mps 749 mmHg 95%
    13:00 -9°C° 0 mm 1 mps 749 mmHg 94%
    14:00 -9°C° 0 mm 1 mps 749 mmHg 94%
    15:00 -12°C° 0 mm 2 mps 749 mmHg 94%
    16:00 -13°C° 0 mm 2 mps 749 mmHg 94%
    17:00 -14°C° 0 mm 2 mps 749 mmHg 94%
    18:00 -15°C° 0 mm 2 mps 749 mmHg 92%
    19:00 -16°C° 0 mm 2 mps 749 mmHg 91%
    20:00 -16°C° 0 mm 2 mps 749 mmHg 89%
    21:00 -17°C° 0 mm 2 mps 749 mmHg 88%
    22:00 -17°C° 0 mm 2 mps 749 mmHg 87%
    23:00 -19°C° 0 mm 3 mps 748 mmHg 86%
    Show more